| time (UTC) | temp F | wind direction | speed knots | gust knots | rain 1hr in | rain 24hr in | rain mn in | humidity % | barometer mb |
| 20260505011611 | 66 | 247 | 4.3 | 7.8 | 0.00 | 0.00 | 0.00 | 36 | 1000.8 |
| 20260505010057 | 67 | 236 | 2.6 | 7.0 | 0.00 | 0.00 | 0.00 | 35 | 1000.9 |
| 20260505004607 | 68 | 211 | 0.9 | 5.2 | 0.00 | 0.00 | 0.00 | 34 | 1001.0 |
| 20260505003057 | 67 | 216 | 1.7 | 5.2 | 0.00 | 0.00 | 0.00 | 36 | 1001.0 |
| 20260505001615 | 68 | 237 | 1.7 | 5.2 | 0.00 | 0.00 | 0.00 | 35 | 1001.0 |
| 20260505000108 | 67 | 19 | 0.0 | 4.3 | 0.00 | 0.00 | 0.00 | 33 | 1001.2 |
| 20260504234558 | 65 | 29 | 2.6 | 6.1 | 0.00 | 0.00 | 0.00 | 38 | 1001.3 |
| 20260504233109 | 64 | 34 | 5.2 | 11.3 | 0.00 | 0.00 | 0.00 | 39 | 1001.3 |
| 20260504231555 | 64 | 36 | 7.0 | 12.2 | 0.00 | 0.00 | 0.00 | 41 | 1001.3 |
| 20260504230053 | 63 | 355 | 8.7 | 19.1 | 0.00 | 0.00 | 0.00 | 41 | 1001.4 |
| 20260504224553 | 64 | 28 | 7.8 | 16.5 | 0.00 | 0.00 | 0.00 | 38 | 1001.5 |
| 20260504223051 | 64 | 26 | 7.0 | 18.2 | 0.00 | 0.00 | 0.00 | 39 | 1001.8 |
| 20260504221550 | 62 | 94 | 10.4 | 18.2 | 0.00 | 0.00 | 0.00 | 41 | 1002.1 |
| 20260504220052 | 62 | 151 | 2.6 | 6.1 | 0.00 | 0.00 | 0.00 | 40 | 1002.2 |
| 20260504214551 | 61 | 96 | 7.0 | 13.9 | 0.00 | 0.00 | 0.00 | 39 | 1002.3 |
| 20260504213053 | 62 | 80 | 7.0 | 13.9 | 0.00 | 0.00 | 0.00 | 40 | 1002.2 |
| 20260504211551 | 63 | 63 | 7.0 | 16.5 | 0.00 | 0.00 | 0.00 | 37 | 1001.9 |
| 20260504210049 | 64 | 26 | 3.5 | 8.7 | 0.00 | 0.00 | 0.00 | 36 | 1001.8 |
| 20260504204551 | 65 | 78 | 3.5 | 8.7 | 0.00 | 0.00 | 0.00 | 35 | 1001.8 |
| 20260504203052 | 65 | 46 | 2.6 | 8.7 | 0.00 | 0.00 | 0.00 | 35 | 1001.8 |
| 20260504201547 | 66 | 26 | 1.7 | 7.8 | 0.00 | 0.00 | 0.00 | 32 | 1001.9 |
| 20260504200049 | 66 | 313 | 2.6 | 5.2 | 0.00 | 0.00 | 0.00 | 30 | 1002.0 |
| 20260504194555 | 70 | 186 | 0.9 | 3.5 | 0.00 | 0.00 | 0.00 | 29 | 1002.0 |
| 20260504193048 | 69 | 227 | 0.9 | 10.4 | 0.00 | 0.00 | 0.00 | 30 | 1002.2 |
| 20260504191605 | 71 | 254 | 4.3 | 10.4 | 0.00 | 0.00 | 0.00 | 28 | 1002.2 |
| 20260504190046 | 70 | 209 | 3.5 | 10.4 | 0.00 | 0.00 | 0.00 | 31 | 1002.3 |
| 20260504184541 | 71 | 239 | 4.3 | 10.4 | 0.00 | 0.00 | 0.00 | 31 | 1002.5 |
| 20260504183040 | 71 | 239 | 3.5 | 12.2 | 0.00 | 0.00 | 0.00 | 33 | 1002.6 |
| 20260504181536 | 68 | 246 | 3.5 | 11.3 | 0.00 | 0.00 | 0.00 | 35 | 1002.9 |
| 20260504180036 | 68 | 252 | 5.2 | 10.4 | 0.00 | 0.00 | 0.00 | 33 | 1002.9 |
| 20260504174535 | 68 | 241 | 7.0 | 11.3 | 0.00 | 0.00 | 0.00 | 34 | 1002.9 |
| 20260504173033 | 67 | 212 | 4.3 | 9.6 | 0.00 | 0.00 | 0.00 | 34 | 1003.0 |
| 20260504171544 | 67 | 255 | 0.9 | 4.3 | 0.00 | 0.00 | 0.00 | 33 | 1003.3 |
| 20260504090106 | 56 | 126 | 3.5 | 8.7 | 0.00 | 0.00 | 0.00 | 35 | 1003.8 |
| 20260504081552 | 59 | 94 | 7.8 | 18.2 | 0.00 | 0.00 | 0.00 | 28 | 1003.6 |
| 20260504044531 | 57 | 101 | 4.3 | 7.8 | 0.00 | 0.00 | 0.00 | 32 | 1005.0 |
| 20260504043042 | 57 | 74 | 4.3 | 6.1 | 0.00 | 0.00 | 0.00 | 32 | 1005.0 |
| 20260504041535 | 58 | 86 | 3.5 | 6.1 | 0.00 | 0.00 | 0.00 | 32 | 1005.1 |
| 20260504040031 | 59 | 81 | 3.5 | 6.1 | 0.00 | 0.00 | 0.00 | 31 | 1005.0 |
| 20260504034530 | 59 | 94 | 0.9 | 5.2 | 0.00 | 0.00 | 0.00 | 30 | 1005.0 |
| 20260504033031 | 60 | 98 | 2.6 | 7.0 | 0.00 | 0.00 | 0.00 | 30 | 1004.9 |
| 20260504031529 | 60 | 85 | 2.6 | 4.3 | 0.00 | 0.00 | 0.00 | 30 | 1004.8 |
| 20260504030027 | 60 | 85 | 1.7 | 7.0 | 0.00 | 0.00 | 0.00 | 29 | 1004.8 |
| 20260504024528 | 61 | 96 | 1.7 | 6.1 | 0.00 | 0.00 | 0.00 | 28 | 1004.8 |
| 20260504023028 | 62 | 90 | 3.5 | 6.1 | 0.00 | 0.00 | 0.00 | 28 | 1004.7 |
| 20260504021526 | 62 | 88 | 4.3 | 7.8 | 0.00 | 0.00 | 0.00 | 28 | 1004.7 |
| 20260504020026 | 63 | 84 | 4.3 | 7.0 | 0.00 | 0.00 | 0.00 | 28 | 1004.8 |
| 20260504014533 | 64 | 93 | 5.2 | 7.0 | 0.00 | 0.00 | 0.00 | 29 | 1004.9 |
| 20260504013023 | 65 | 86 | 3.5 | 6.1 | 0.00 | 0.00 | 0.00 | 28 | 1004.9 |